Content
SEND FEEDBACK

Daily
Averages
Monthly
Summary
Uruguay

PUNTA DEL ESTE, URUGUAY


Home > South America > Uruguay
Elevation: 16 meters     Latitude: 35 00S     Longitude: 055 00W

WEATHER
 
SELECT A DAY
Number of Records: 117,688;   Date Range: 7/1/96 - 7/26/14
 
SHARE

PRINT THIS DATA

[ ← Previous Day ]
WEATHER ALMANAC - 31 JANUARY, 2013
[ Next Day → ]
[ °F ]   °C
Weather ElementAverageHighLow
Temperature25.8 °C32 °C (12:15 pm)20 °C (6:00 am)
Dewpoint21.1 °C25 °C (12:15 pm)18 °C (6:00 am)
Humidity75.9 %88 % (3:00 am)58 % (12:00 pm)
Barometer1009.1 hPa1010.2 hPa (1:00 am)1007.1 hPa (7:00 pm)
Wind Speed10.8 km/h25.9 km/h (5:00 pm)
Weather ElementAverage
Visibility8.9 km
Wind DirectionSE (130.8 °)

Weather ElementTotal
Precipitation---
Cooling Degree Days7.7 (Base 18.3)
Growing Degree Days16 (Base 10)
Averaged from 25 records on 31 January, 2013
WEATHER CONDITIONS BREAKOUT
WIND DIRECTION BREAKOUT
WEATHER BY HOUR - 31 JANUARY, 2013
[ °F ]   °C
Local TimeTemperatureDewpointHumidityBarometerVisibilityWind DirectionWind SpeedGust SpeedPrecipitationEventsConditions
1:00 AM24 °C21 °C83 %1010.2 hPa10 kmNorth (360°)9.3 km/hScattered Clouds
2:00 AM24 °C21 °C83 %1010.2 hPa10 kmWNW (300°)5.6 km/hScattered Clouds
3:00 AM21 °C19 °C88 %1009.1 hPa10 kmCalmScattered Clouds
4:00 AM21 °C19 °C88 %1009.1 hPa10 kmNNW (330°)5.6 km/hScattered Clouds
6:00 AM20 °C18 °C88 %1008.1 hPa10 kmCalmScattered Clouds
7:00 AM20 °C18 °C88 %1009.1 hPa3.1 kmCalmMostly Cloudy
7:15 AM21 °C19 °C88 %1009.1 hPa0.3 kmSSW (200°)13 km/hFogFog
7:42 AM22 °C20 °C88 %1010.2 hPa3.1 kmSouth (170°)9.3 km/hScattered Clouds
9:00 AM23 °C21 °C88 %1010.2 hPa6 kmSSE (150°)16.7 km/hMostly Cloudy
10:00 AM28 °C24 °C79 %1010.2 hPa10 kmEast (90°)9.3 km/hScattered Clouds
11:00 AM26 °C20 °C69 %1010.2 hPa10 kmCalmScattered Clouds
12:00 PM29 °C20 °C58 %1010.2 hPa10 kmNNE (20°)9.3 km/hMostly Cloudy
12:15 PM32 °C25 °C66 %1010.2 hPa10 kmSSE (160°)14.8 km/hMostly Cloudy
1:00 PM32 °C25 °C66 %1009.1 hPa10 kmSouth (180°)14.8 km/hScattered Clouds
2:00 PM31 °C23 °C62 %1009.1 hPa10 kmSouth (180°)18.5 km/hScattered Clouds
3:00 PM30 °C22 °C62 %1009.1 hPa10 kmSSE (160°)22.2 km/hScattered Clouds
4:00 PM30 °C23 °C66 %1008.1 hPa10 kmSSE (150°)24.1 km/hScattered Clouds
5:00 PM30 °C24 °C70 %1008.1 hPa10 kmSSE (150°)25.9 km/hMostly Cloudy
6:00 PM28 °C23 °C74 %1008.1 hPa10 kmSSE (150°)22.2 km/hMostly Cloudy
7:00 PM28 °C22 °C70 %1007.1 hPa10 kmSSE (150°)14.8 km/hMostly Cloudy
8:00 PM27 °C20 °C65 %1007.1 hPa10 kmEast (90°)5.6 km/hMostly Cloudy
9:00 PM25 °C20 °C74 %1008.1 hPa10 kmENE (70°)9.3 km/hOvercast
10:00 PM24 °C20 °C78 %1008.1 hPaEast (80°)7.4 km/hClear
11:00 PM24 °C20 °C78 %1008.1 hPaENE (70°)7.4 km/hClear
11:15 PM25 °C21 °C78 %1008.1 hPa10 kmENE (60°)5.6 km/hThunderstormThunderstorm
Hourly data recorded from SULS, located 0 kilometers away from Punta del Este, Uruguay







STORIES FROM OUR PARTNERS